Location: Demmingen
(48.6757°N, 10.4375°E)
Time: 15:29:43
(UTC+00:00)

Resurs 1-3 - Visible Passes

Search period start: 04 October 2024 00:00
Search period end: 14 October 2024 00:00
Orbit: 619 x 621 km, 97.7° (Epoch: 03 October)

Date Brightness Start Highest point End Pass type
(mag) Time Alt. Az. Time Alt. Az. Time Alt. Az.
04 Oct 3.5 18:13:28 10° SSE 18:17:48 84° ENE 18:22:10 10° NNW visible
04 Oct 6.6 19:53:03 10° WSW 19:54:33 11° W 19:56:02 10° WNW visible
05 Oct 3.9 18:30:50 10° S 18:35:08 66° WSW 18:39:29 10° NNW visible
06 Oct 4.8 17:13:14 10° ESE 17:16:37 23° ENE 17:20:01 10° NNE visible
06 Oct 4.7 18:48:22 10° S 18:52:30 44° W 18:56:41 10° NNW visible
07 Oct 4.3 17:29:57 10° SE 17:33:47 32° ENE 17:37:39 10° N visible
07 Oct 5.4 19:06:06 10° SSW 19:09:54 30° W 19:13:45 10° NNW visible
08 Oct 3.8 17:46:51 10° SE 17:50:58 46° ENE 17:55:08 10° N visible
08 Oct 6.0 19:24:04 10° SW 19:27:20 21° W 19:30:37 10° NW visible
09 Oct 3.5 18:03:54 10° SSE 18:08:12 68° ENE 18:12:31 10° N visible
09 Oct 6.5 19:42:27 10° WSW 19:44:48 14° W 19:47:09 10° NW visible
10 Oct 3.6 18:21:07 10° SSE 18:25:26 82° WSW 18:29:49 10° NNW visible
11 Oct 5.0 17:03:54 10° ESE 17:06:58 19° ENE 17:10:02 10° NNE visible
11 Oct 4.2 18:38:28 10° S 18:42:43 54° W 18:47:00 10° NNW visible
12 Oct 4.6 17:20:25 10° ESE 17:24:02 26° ENE 17:27:40 10° N visible
12 Oct 5.0 18:56:01 10° SSW 19:00:01 37° W 19:04:04 10° NNW visible
13 Oct 4.1 17:37:09 10° SE 17:41:08 37° ENE 17:45:09 10° N visible
13 Oct 5.7 19:13:46 10° SSW 19:17:22 25° W 19:20:59 10° NW visible
